Previsão horária em 2-e Itkulovo

Hoje, 30 Outubro, Sexta-feira

Tempo Temperatura Precipitação Vento Pressão Humidade
00:00 -2°C° 0 mm 2 m/s 725 mmHg 71%
01:00 -2°C° 0 mm 2 m/s 725 mmHg 70%
02:00 0°C° 0 mm 1 m/s 725 mmHg 68%
03:00 0°C° 0 mm 1 m/s 725 mmHg 67%
04:00 0°C° 0 mm 1 m/s 725 mmHg 66%
05:00 0°C° 0 mm 1 m/s 725 mmHg 64%
06:00 +1°C° 0 mm 1 m/s 725 mmHg 61%
07:00 +1°C° 0 mm 1 m/s 725 mmHg 59%
08:00 +2°C° 0 mm 1 m/s 725 mmHg 55%
09:00 +4°C° 0 mm 1 m/s 725 mmHg 50%
10:00 +6°C° 0 mm 1 m/s 725 mmHg 45%
11:00 +5°C° 0 mm 2 m/s 725 mmHg 46%
12:00 +6°C° 0 mm 2 m/s 724 mmHg 47%
13:00 +7°C° 0 mm 3 m/s 724 mmHg 48%
14:00 +6°C° 0 mm 2 m/s 724 mmHg 54%
15:00 +5°C° 0 mm 2 m/s 724 mmHg 59%
16:00 +4°C° 0 mm 2 m/s 723 mmHg 65%
17:00 +3°C° 0 mm 2 m/s 723 mmHg 65%
18:00 +2°C° 0 mm 2 m/s 723 mmHg 65%
19:00 +2°C° 0 mm 2 m/s 722 mmHg 65%
20:00 +2°C° 0 mm 2 m/s 722 mmHg 66%
21:00 +1°C° 0 mm 2 m/s 722 mmHg 66%
22:00 +1°C° 0 mm 2 m/s 722 mmHg 66%
23:00 +1°C° 0 mm 2 m/s 722 mmHg 65%

Amanhã, 31 Outubro, Sábado

Tempo Temperatura Precipitação Vento Pressão Humidade
00:00 +1°C° 0 mm 2 m/s 722 mmHg 63%
01:00 +1°C° 0 mm 2 m/s 722 mmHg 62%
02:00 +1°C° 0 mm 2 m/s 721 mmHg 62%
03:00 +1°C° 0 mm 2 m/s 721 mmHg 63%
04:00 +1°C° 0 mm 2 m/s 721 mmHg 63%
05:00 +1°C° 0 mm 2 m/s 721 mmHg 64%
06:00 +1°C° 0 mm 2 m/s 721 mmHg 66%
07:00 -1°C° 0 mm 2 m/s 720 mmHg 68%
08:00 +2°C° 0 mm 2 m/s 720 mmHg 65%
09:00 +3°C° 0 mm 2 m/s 720 mmHg 62%
10:00 +3°C° 0 mm 3 m/s 720 mmHg 59%
11:00 +4°C° 0 mm 3 m/s 720 mmHg 58%
12:00 +5°C° 0 mm 3 m/s 720 mmHg 57%
13:00 +7°C° 0 mm 3 m/s 720 mmHg 57%
14:00 +5°C° 0 mm 3 m/s 720 mmHg 59%
15:00 +5°C° 0 mm 3 m/s 719 mmHg 62%
16:00 +4°C° 0 mm 3 m/s 719 mmHg 65%
17:00 +4°C° 0 mm 3 m/s 719 mmHg 65%
18:00 +3°C° 0 mm 3 m/s 719 mmHg 66%
19:00 +3°C° 0 mm 3 m/s 718 mmHg 67%
20:00 +3°C° 0 mm 3 m/s 718 mmHg 65%
21:00 +3°C° 0 mm 2 m/s 718 mmHg 62%
22:00 +3°C° 0 mm 2 m/s 718 mmHg 60%
23:00 +3°C° 0 mm 2 m/s 718 mmHg 60%

Depois de amanhã, 1 Novembro, Domingo

Tempo Temperatura Precipitação Vento Pressão Humidade
00:00 +4°C° 0 mm 2 m/s 718 mmHg 59%
01:00 +3°C° 0 mm 3 m/s 717 mmHg 58%
02:00 +3°C° 0 mm 2 m/s 717 mmHg 59%
03:00 +3°C° 0 mm 2 m/s 717 mmHg 61%
04:00 +3°C° 0 mm 2 m/s 717 mmHg 62%
05:00 +3°C° 0 mm 2 m/s 717 mmHg 63%
06:00 +3°C° 0 mm 2 m/s 717 mmHg 64%
07:00 +3°C° 0 mm 2 m/s 716 mmHg 65%
08:00 +3°C° 0 mm 2 m/s 717 mmHg 66%
09:00 +4°C° 0 mm 2 m/s 717 mmHg 67%
10:00 +4°C° 0 mm 2 m/s 717 mmHg 68%
11:00 +5°C° 0 mm 1 m/s 717 mmHg 70%
12:00 +5°C° 0 mm 1 m/s 717 mmHg 73%
13:00 +5°C° 0 mm 1 m/s 717 mmHg 76%
14:00 +5°C° 0 mm 1 m/s 717 mmHg 77%
15:00 +5°C° 0 mm 1 m/s 717 mmHg 79%
16:00 +5°C° 0 mm 1 m/s 717 mmHg 80%
17:00 +5°C° 0 mm 1 m/s 717 mmHg 82%
18:00 +4°C° 0 mm 1 m/s 717 mmHg 84%
19:00 +4°C° 0 mm 1 m/s 718 mmHg 86%
20:00 +3°C° 0 mm 1 m/s 718 mmHg 87%
21:00 +3°C° 0 mm 1 m/s 718 mmHg 89%
22:00 +3°C° 0 mm 1 m/s 718 mmHg 90%
23:00 +3°C° 0 mm 1 m/s 718 mmHg 90%

2 Novembro, Segunda-feira

Tempo Temperatura Precipitação Vento Pressão Humidade
00:00 +3°C° 0 mm 1 m/s 718 mmHg 91%
01:00 +2°C° 0 mm 1 m/s 718 mmHg 91%
02:00 +2°C° 0 mm 1 m/s 718 mmHg 92%
03:00 +1°C° 0 mm 0 m/s 718 mmHg 92%
04:00 +1°C° 0 mm 0 m/s 719 mmHg 93%
05:00 +1°C° 0 mm 0 m/s 719 mmHg 94%
06:00 +1°C° 0 mm 0 m/s 719 mmHg 94%
07:00 +1°C° 0 mm 0 m/s 719 mmHg 95%
08:00 +2°C° 0 mm 0 m/s 719 mmHg 93%
09:00 +4°C° 0 mm 1 m/s 719 mmHg 90%
10:00 +5°C° 0 mm 1 m/s 719 mmHg 88%
11:00 +6°C° 0 mm 1 m/s 720 mmHg 85%
12:00 +6°C° 0 mm 1 m/s 720 mmHg 82%
13:00 +7°C° 0 mm 1 m/s 720 mmHg 79%
14:00 +6°C° 0 mm 1 m/s 720 mmHg 81%
15:00 +6°C° 0 mm 1 m/s 720 mmHg 84%
16:00 +5°C° 0 mm 1 m/s 720 mmHg 87%
17:00 +4°C° 0 mm 1 m/s 720 mmHg 88%
18:00 +3°C° 0 mm 1 m/s 720 mmHg 89%
19:00 +3°C° 0 mm 1 m/s 720 mmHg 90%
20:00 +2°C° 0 mm 1 m/s 720 mmHg 90%
21:00 +2°C° 0 mm 1 m/s 720 mmHg 91%
22:00 +2°C° 0 mm 1 m/s 721 mmHg 91%
23:00 +2°C° 0 mm 1 m/s 721 mmHg 92%

3 Novembro, Terça-feira

Tempo Temperatura Precipitação Vento Pressão Humidade
00:00 +2°C° 0 mm 1 m/s 721 mmHg 93%
01:00 +2°C° 0 mm 1 m/s 721 mmHg 94%
02:00 +2°C° 0 mm 1 m/s 722 mmHg 94%
03:00 +2°C° 0 mm 1 m/s 722 mmHg 95%
04:00 +2°C° 0 mm 1 m/s 722 mmHg 95%
05:00 +2°C° 0 mm 1 m/s 722 mmHg 95%
06:00 +1°C° 0 mm 0 m/s 722 mmHg 95%
07:00 +1°C° 0 mm 0 m/s 723 mmHg 96%
08:00 +2°C° 0 mm 1 m/s 723 mmHg 93%
09:00 +3°C° 0 mm 1 m/s 723 mmHg 91%
10:00 +3°C° 0 mm 1 m/s 723 mmHg 89%
11:00 +4°C° 0 mm 1 m/s 724 mmHg 86%
12:00 +5°C° 0 mm 1 m/s 724 mmHg 84%
13:00 +5°C° 0 mm 1 m/s 724 mmHg 81%
14:00 +5°C° 0 mm 1 m/s 724 mmHg 84%
15:00 +3°C° 0 mm 2 m/s 724 mmHg 87%
16:00 +2°C° 0 mm 2 m/s 724 mmHg 90%
17:00 +3°C° 0 mm 1 m/s 724 mmHg 92%
18:00 +2°C° 0 mm 1 m/s 724 mmHg 93%
19:00 +2°C° 0 mm 1 m/s 724 mmHg 94%
20:00 +2°C° 0 mm 1 m/s 725 mmHg 94%
21:00 +2°C° 0 mm 1 m/s 725 mmHg 94%
22:00 +2°C° 0 mm 1 m/s 725 mmHg 94%
23:00 +2°C° 0 mm 1 m/s 725 mmHg 93%

4 Novembro, Quarta-feira

Tempo Temperatura Precipitação Vento Pressão Humidade
00:00 +1°C° 0 mm 2 m/s 725 mmHg 93%
01:00 +1°C° 0 mm 2 m/s 725 mmHg 93%
02:00 +1°C° 0 mm 2 m/s 725 mmHg 92%
03:00 +1°C° 0 mm 2 m/s 725 mmHg 91%
04:00 +1°C° 0 mm 2 m/s 724 mmHg 90%
05:00 +1°C° 0 mm 2 m/s 725 mmHg 89%
06:00 +1°C° 0 mm 2 m/s 725 mmHg 88%
07:00 +2°C° 0 mm 2 m/s 725 mmHg 87%
08:00 +2°C° 0 mm 3 m/s 725 mmHg 82%
09:00 +3°C° 0 mm 3 m/s 725 mmHg 77%
10:00 +4°C° 0 mm 3 m/s 725 mmHg 72%
11:00 +5°C° 0 mm 3 m/s 725 mmHg 70%
12:00 +6°C° 0 mm 4 m/s 725 mmHg 68%
13:00 +7°C° 0 mm 4 m/s 725 mmHg 66%
14:00 +7°C° 0 mm 3 m/s 724 mmHg 69%
15:00 +5°C° 0 mm 3 m/s 724 mmHg 73%
16:00 +5°C° 0 mm 3 m/s 724 mmHg 76%
17:00 +4°C° 0 mm 3 m/s 724 mmHg 78%
18:00 +3°C° 0 mm 3 m/s 724 mmHg 79%
19:00 +2°C° 0 mm 3 m/s 724 mmHg 80%
20:00 +2°C° 0 mm 3 m/s 724 mmHg 80%
21:00 +2°C° 0 mm 3 m/s 723 mmHg 79%
22:00 +1°C° 0 mm 3 m/s 723 mmHg 78%
23:00 +2°C° 0 mm 2 m/s 723 mmHg 77%
Mostrar mais